Location: Cluj-Napoca
(46.7712°N, 23.6236°E)
Time: 12:19:39
(UTC+03:00)

ISS - Pass Details

Date: 13 May 2021
Orbit: 417 x 422 km, 51.6° (Epoch: 15 May)

Event Time Altitude Azimuth Distance (km) Brightness Sun altitude
Exits shadow 03:05:02 - 298° (WNW) 1,548 -0.9 -20.8°
Reaches altitude 10° 03:05:09 10° 298° (WNW) 1,504 -0.9 -20.8°
Maximum altitude 03:08:19 37° 8° (N) 675 -2.2 -20.6°
Drops below altitude 10° 03:11:29 10° 78° (ENE) 1,505 -0.4 -20.3°
Sets 03:13:41 0° 87° (E) 2,369 0.5 -20.1°
